Regional Weather Roundup
Issued by NWS

Home | Current Version | Previous Version | Text Only | Print | Product List | Glossary On
Versions: 1 2 3 4 5 6 7 8 9 10 11 12 13 14 15 16 17 18 19 20 21 22 23 24 25 26 27 28 29 30 31 32 33 34 35 36 37 38 39 40 41 42 43 44 45 46 47 48 49 50
000
ASUS44 KFWD 292203
RWRTX
NORTH TEXAS HOURLY WEATHER ROUNDUP
NATIONAL WEATHER SERVICE FORT WORTH TX
500 PM CDT MON AUG 29 2016

NOTE: "FAIR" INDICATES FEW OR NO CLOUDS BELOW 12,000 FEET WITH NO
SIGNIFICANT WEATHER AND/OR OBSTRUCTIONS TO VISIBILITY.

TXZ118-119-292300-
DALLAS/FORT WORTH METROPLEX

CITY           SKY/WX    TMP DP  RH WIND       PRES   REMARKS
DFW AIRPORT    CLOUDY    84  72  67 N5        29.99S
DALLAS LOVE    CLOUDY    83  72  69 W6        29.99S
FTW MEACHAM    LGT RAIN  78  72  81 NW6       29.99F
DAL-EXECUTIVE  CLOUDY    82  75  79 N5        29.99S
FTW-ALLIANCE   CLOUDY    77  72  84 NW3       30.00F
FTW-SPINKS     SUNNY     84  70  61 NE3       30.02S
ARLINGTON      PTSUNNY   84  72  67 NE5       30.00F
GRAND PRAIRIE  SUNNY     82  72  69 N3        30.01F
ADDISON        PTSUNNY   86  70  58 S3        30.00S HX  90
MESQUITE       PTSUNNY   84  72  65 SW3       29.98F
LANCASTER      MOSUNNY   86  74  67 NW5       29.99F HX  93
$$

TXZ091>094-102>105-117-120-121-131>134-292300-
NORTH CENTRAL TEXAS

CITY           SKY/WX    TMP DP  RH WIND       PRES   REMARKS
SHRMAN/DENISON NOT AVBL
GAINESVILLE      N/A     91  69  48 E8        30.02F HX  95
BOWIE          MOSUNNY   90  68  47 CALM      30.02S HX  93
BRIDGEPORT     RAIN      74  71  88 N5        30.06R
DECATUR        CLOUDY    82  68  62 E7        30.04S
DENTON         CLOUDY    78  72  81 NE8       30.00F
MCKINNEY       MOSUNNY   89  70  53 NE10      29.98F HX  94
GREENVILLE     MOSUNNY   90  64  43 NE6       29.98F HX  91
ROCKWALL       PTSUNNY   89  71  55 E7        29.97S HX  94
TERRELL        MOSUNNY   90  71  53 E10G18    29.98S HX  96
WAXAHACHIE     CLOUDY    79  76  92 N3        30.00S
CLEBURNE       MOSUNNY   82  77  83 E9        30.03R HX  91
GRANBURY       CLOUDY    82  70  67 N6        30.02S
$$

TXZ083>090-098>101-113>116-127>130-139>142-154-155-292300-
WESTERN NORTH TEXAS

CITY           SKY/WX    TMP DP  RH WIND       PRES   REMARKS
WICHITA FALLS  MOSUNNY   92  61  35 E10       30.01F HX  92
WF-KICKAPOO    MOSUNNY   93  60  32 NE7       30.03S HX  93
VERNON         SUNNY     92  54  26 E8        30.05S HX  90
ABILENE        MOSUNNY   88  64  44 E12G18    30.04F
CISCO          PTSUNNY   88  68  51 E13G18    30.04S HX  91
GRAHAM         MOSUNNY   91  68  46 E6        30.01S HX  94
MINERAL WELLS  PTSUNNY   81  70  69 E14       30.02R
STEPHENVILLE   CLOUDY    86  69  57 SE10      30.04R HX  90
COMANCHE       MOSUNNY   85  70  61 NE13G18   30.02R HX  90
BROWNWOOD      MOSUNNY   90  66  45 E15       30.00S HX  92
COLEMAN        MOSUNNY   89  62  40 E17       30.01F HX  90
$$

TXZ143>147-156>162-174-175-292300-
CENTRAL TEXAS

CITY           SKY/WX    TMP DP  RH WIND       PRES   REMARKS
WACO           MOSUNNY   91  72  53 E12       29.95S HX  98
HILLSBORO      CLOUDY    83  72  70 N14       29.98F
CORSICANA      CLOUDY    84  73  69 W7        29.98S HX  90
MEXIA          PTSUNNY   83  73  71 E9        29.97R THUNDER
HEARNE         CLOUDY    81  73  77 NE14G21   29.96R
CAMERON        MOSUNNY   89  70  51 E9G20     29.93S HX  94
TEMPLE         PTSUNNY   87  70  56 E14       29.95S HX  92
KILLEEN        MOSUNNY   89  69  50 NE16      29.95S HX  93
KILLEEN-SKYLRK MOSUNNY   88  70  55 E12G20    29.96S HX  93
FORT HOOD      PTSUNNY   88  68  51 E13       29.93F HX  91
HAMILTON       CLOUDY    85  71  63 NE13      30.01S HX  90
LAMPASAS       PTSUNNY   87  73  62 E7        29.97S HX  93
$$

TXZ095>097-106>112-122>126-135>138-148>153-164>167-292300-
EAST TEXAS

CITY           SKY/WX    TMP DP  RH WIND       PRES   REMARKS
PARIS          MOSUNNY   90  72  55 SE10      30.00S HX  96
SULPHUR SPRNGS MOSUNNY   93  68  44 E12G17    30.00F HX  97
MOUNT PLEASANT MOSUNNY   89  72  56 E7        30.00S HX  97
GILMER         CLOUDY    83  76  79 N6        29.98F HX  91
TYLER          CLOUDY    91  73  55 NE10      29.97S HX  99
LONGVIEW       CLOUDY    88  75  65 NE9       29.96F HX  97
MARSHALL       MOSUNNY   85  72  64 NE5       29.99F HX  91
ATHENS         CLOUDY    90  70  51 E8        29.96R HX  95
PALESTINE      CLOUDY    76  75  95 SE3       29.99S
JACKSONVILLE   LGT RAIN  76  73  88 E12       30.02R
HENDERSON      CLOUDY    85  74  69 CALM      29.98S HX  92
CENTER         CLOUDY    91  76  61 NE3       29.97R HX 102
NACOGDOCHES    CLOUDY   N/A N/A N/A CALM      29.94R
LUFKIN         CLOUDY    74  72  93 CALM      29.96S
$$

SUPPLEMENTAL OBSERVATIONS (CENTRAL)

CITY           SKY/WX    TMP DP  RH WIND       PRES   REMARKS
$$

SUPPLEMENTAL OBSERVATIONS (WEST)

CITY           SKY/WX    TMP DP  RH WIND       PRES   REMARKS
$$

SUPPLEMENTAL OBSERVATIONS (EAST)

CITY           SKY/WX    TMP DP  RH WIND       PRES   REMARKS
$$

SUPPLEMENTAL OBSERVATIONS ARE A COLLECTION OF AUTOMATED INSTRUMENTS
THAT ARE MAINTAINED BY A VARIETY OF FEDERAL AND STATE AGENCIES.
CERTAIN ELEMENTS...SUCH AS HUMIDITY VALUES AND SUSTAINED WIND
SPEEDS...MAY BE APPROXIMATED.





USA.gov is the U.S. government's official web portal to all federal, state and local government web resources and services.